User: anonymous   Login
Location: Owatonna
(44.0840°N, 93.2260°W)
Time: 17:03:57
(UTC-06:00)
Language:

Tiangong 1 - Orbit

View from above orbital plane
View from above orbital plane
View from above satellite
View from above satellite

Ground track
Ground track

The orbit data is extracted from the following two-line orbital elements,

1 37820U 11053A   18052.55972108  .00125163  15399-4  16515-3 0  9993
2 37820  42.7505  88.8581 0016067  81.7560  48.9344 16.05900089367657
Epoch (UTC): 21 February 2018 13:25:59
Eccentricity: 0.0016067
inclination: 42.7505°
perigee height: 247 km
apogee height: 269 km
right ascension of ascending node: 88.8581°
argument of perigee: 81.7560°
revolutions per day: 16.05900089
mean anomaly at epoch: 48.9344°
orbit number at epoch: 36765

The dashed part of the orbit path shows where the satellite is in the earth's shadow,  

DLR